Regional Weather Roundup
Issued by NWS Burlington, VT

Home | Current Version | Previous Version | Text Only | Print | Product List | Glossary On
Versions: 1 2 3 4 5 6 7 8 9 10 11 12 13 14 15 16 17 18 19 20 21 22 23 24 25 26 27 28 29 30 31 32 33 34 35 36 37 38 39 40 41 42 43 44 45 46 47 48 49 50
000
ASUS41 KBTV 230310
RWRBTV
VERMONT REGIONAL WEATHER ROUNDUP
NATIONAL WEATHER SERVICE BURLINGTON VT
1000 PM EST SAT NOV 22 2014

NOTE: "FAIR" INDICATES FEW OR NO CLOUDS BELOW 12,000 FEET WITH NO
SIGNIFICANT WEATHER AND/OR OBSTRUCTIONS TO VISIBILITY.

* THESE REPORTS ARE NOT UNDER NWS QUALITY CONTROL AND/OR DO NOT
  REPORT WEATHER SUCH AS PRECIPITATION AND FOG.

VTZ001>019-230400-
_____VERMONT_____


CITY           SKY/WX    TMP DP  RH WIND       PRES   REMARKS
BURLINGTON     CLOUDY    39  21  48 S20G29    29.95R
MONTPELIER     CLOUDY    40  31  70 SW9G17    29.96S
ST. JOHNSBURY*   N/A     37  21  52 MISG      29.92S
LYNDONVILLE*   CLOUDY    34  19  55 S3        29.93S
MIDDLEBURY*    CLOUDY    40  23  51 S15G25    30.00S
RUTLAND*       CLOUDY    41  27  56 SW3       30.03R
SPRINGFIELD    MOCLDY    41  28  60 SW7       30.01R
HIGHGATE*      MIX PCPN  36  28  75 S9        29.92R
NEWPORT*       LGT RAIN  33  27  77 S7        29.91S
BENNINGTON     LGT RAIN  39  22  50 CALM      30.05S
SUTTON*          N/A     30 N/A N/A MISG        N/A

_____LAKE CHAMPLAIN_____


CITY           SKY/WX    TMP DP  RH WIND       PRES   REMARKS
COLCHESTER RF*   N/A     39  30  70 SW31        N/A
DIAMOND ISL*     N/A     37  25  60 S22         N/A

$$

NYZ007-026>031-035-052-083-230400-
_____NORTHERN NEW YORK_____


CITY           SKY/WX    TMP DP  RH WIND       PRES   REMARKS
PLATTSBURGH    CLOUDY    37  27  67 S5        29.93S
SARANAC LAKE   CLOUDY    36  34  92 SW14      29.89S FOG
MASSENA        LGT RAIN  38  38 100 SW13      29.92S FOG
OGDENSBURG*    DRIZZLE   39  39 100 SW10G16   29.91S
POTSDAM*       LGT RAIN  39  39 100 SW9G18    29.92S
WATERTOWN      CLOUDY    42  36  79 S12G18    29.95F
FT DRUM        CLOUDY    40  39  97 SW18G24   29.94R
ALBANY         LGT RAIN  38  25  59 S10       30.08S
GLENS FALLS    CLOUDY    37  21  52 S15       30.04R

$$
NHZ002-005-011-230400-
_____NEW HAMPSHIRE_____


CITY           SKY/WX    TMP DP  RH WIND       PRES   REMARKS
LEBANON        CLOUDY    40  22  48 S13       29.98R
KEENE          CLOUDY    39  16  38 SW7       30.05S
MT WASHINGTON  FOG       19  19 100 NW68        N/A  VSB 0   WCI  -6
PLYMOUTH       CLOUDY    32  24  73 CALM      29.97F
WHITEFIELD     CLOUDY    39  27  62 SW3       29.92F

$$

_____REGIONAL QUEBEC LOCATIONS_____


CITY           SKY/WX    TMP DP  RH WIND       PRES   REMARKS
MONTREAL       DRIZZLE   36  34  93 SW14G22   29.89S FOG
QUEBEC CITY    FLURRIES  30  28  93 SW14      29.83R WCI  20
SHERBROOKE     LGT SNOW  32  30  93 SW6       29.87F

_____REGIONAL ONTARIO LOCATIONS_____


CITY           SKY/WX    TMP DP  RH WIND       PRES   REMARKS
OTTAWA         CLOUDY    37  36  93 SW10      29.89R FOG

______KEY______
VSB  - VISIBILITY IN MILES
WCI  - WIND CHILL INDEX
HX   - HEAT INDEX
$$
NNNN


USA.gov is the U.S. government's official web portal to all federal, state and local government web resources and services.